<?xml version="1.0" encoding="UTF-8" standalone="no" ?>
<gpx xmlns="http://www.topografix.com/GPX/1/1" xmlns:xsi="http://www.w3.org/2001/XMLSchema-instance" xsi:schemaLocation="http://www.topografix.com/GPX/1/1 http://www.topografix.com/GPX/1/1/gpx.xsd" version="1.1" creator="VisuGPX - https://www.visugpx.com">
  <metadata>
    <name>Sentier Jean Sage</name>
    <desc><![CDATA[[b]Parcours du sentier Jean Sage[/b]
samedi 25 août 2012
]]></desc>
  </metadata>
  <trk>
    <name><![CDATA[06 sage- TraceGps-com issued]]></name>
    <trkseg>
      <trkpt lat="47.31861" lon="4.92657">
        <ele>262.295349</ele>
        <time>2007-06-16T21:50:38Z</time>
      </trkpt>
      <trkpt lat="47.31854" lon="4.92816">
        <ele>274.065521</ele>
        <time>2007-06-16T21:50:38Z</time>
      </trkpt>
      <trkpt lat="47.32069" lon="4.93205">
        <ele>303.171539</ele>
        <time>2007-06-16T21:50:38Z</time>
      </trkpt>
      <trkpt lat="47.3205" lon="4.93205">
        <ele>312.909393</ele>
        <time>2007-06-16T21:50:38Z</time>
      </trkpt>
      <trkpt lat="47.31984" lon="4.93066">
        <ele>286.177521</ele>
        <time>2007-06-16T21:50:38Z</time>
      </trkpt>
      <trkpt lat="47.31972" lon="4.93091">
        <ele>301.538422</ele>
        <time>2007-06-16T21:50:38Z</time>
      </trkpt>
      <trkpt lat="47.31919" lon="4.93029">
        <ele>295.641907</ele>
        <time>2007-06-16T21:50:38Z</time>
      </trkpt>
      <trkpt lat="47.31891" lon="4.93074">
        <ele>323.231262</ele>
        <time>2007-06-16T21:50:38Z</time>
      </trkpt>
      <trkpt lat="47.31869" lon="4.93082">
        <ele>333.509735</ele>
        <time>2007-06-16T21:50:38Z</time>
      </trkpt>
      <trkpt lat="47.31837" lon="4.93059">
        <ele>335.302582</ele>
        <time>2007-06-16T21:50:38Z</time>
      </trkpt>
      <trkpt lat="47.31802" lon="4.93054">
        <ele>345.556213</ele>
        <time>2007-06-16T21:50:38Z</time>
      </trkpt>
      <trkpt lat="47.31779" lon="4.93045">
        <ele>351.647644</ele>
        <time>2007-06-16T21:50:38Z</time>
      </trkpt>
      <trkpt lat="47.31758" lon="4.93011">
        <ele>351.781525</ele>
        <time>2007-06-16T21:50:38Z</time>
      </trkpt>
      <trkpt lat="47.31661" lon="4.93112">
        <ele>381.767975</ele>
        <time>2007-06-16T21:50:38Z</time>
      </trkpt>
      <trkpt lat="47.31623" lon="4.93179">
        <ele>393.822449</ele>
        <time>2007-06-16T21:50:38Z</time>
      </trkpt>
      <trkpt lat="47.31567" lon="4.93243">
        <ele>396.993713</ele>
        <time>2007-06-16T21:50:38Z</time>
      </trkpt>
      <trkpt lat="47.3152" lon="4.93232">
        <ele>380.85144</ele>
        <time>2007-06-16T21:50:38Z</time>
      </trkpt>
      <trkpt lat="47.31505" lon="4.932">
        <ele>369.533234</ele>
        <time>2007-06-16T21:50:38Z</time>
      </trkpt>
      <trkpt lat="47.31485" lon="4.93209">
        <ele>361.751495</ele>
        <time>2007-06-16T21:50:38Z</time>
      </trkpt>
      <trkpt lat="47.31467" lon="4.93185">
        <ele>350.983643</ele>
        <time>2007-06-16T21:50:38Z</time>
      </trkpt>
      <trkpt lat="47.31448" lon="4.93236">
        <ele>355.775421</ele>
        <time>2007-06-16T21:50:38Z</time>
      </trkpt>
      <trkpt lat="47.3145" lon="4.93317">
        <ele>369.075256</ele>
        <time>2007-06-16T21:50:38Z</time>
      </trkpt>
      <trkpt lat="47.31514" lon="4.9345">
        <ele>394.021576</ele>
        <time>2007-06-16T21:50:38Z</time>
      </trkpt>
      <trkpt lat="47.31522" lon="4.93524">
        <ele>405.655151</ele>
        <time>2007-06-16T21:50:38Z</time>
      </trkpt>
      <trkpt lat="47.31469" lon="4.93588">
        <ele>416.675812</ele>
        <time>2007-06-16T21:50:38Z</time>
      </trkpt>
      <trkpt lat="47.31432" lon="4.93565">
        <ele>416.792542</ele>
        <time>2007-06-16T21:50:38Z</time>
      </trkpt>
      <trkpt lat="47.31388" lon="4.93551">
        <ele>418.349518</ele>
        <time>2007-06-16T21:50:38Z</time>
      </trkpt>
      <trkpt lat="47.31331" lon="4.93542">
        <ele>419.878235</ele>
        <time>2007-06-16T21:50:38Z</time>
      </trkpt>
      <trkpt lat="47.31306" lon="4.93514">
        <ele>419.230957</ele>
        <time>2007-06-16T21:50:38Z</time>
      </trkpt>
      <trkpt lat="47.31282" lon="4.93479">
        <ele>418.294464</ele>
        <time>2007-06-16T21:50:38Z</time>
      </trkpt>
      <trkpt lat="47.31232" lon="4.93441">
        <ele>417.385437</ele>
        <time>2007-06-16T21:50:38Z</time>
      </trkpt>
      <trkpt lat="47.3117" lon="4.93224">
        <ele>416.032501</ele>
        <time>2007-06-16T21:50:38Z</time>
      </trkpt>
      <trkpt lat="47.31099" lon="4.93147">
        <ele>417.11554</ele>
        <time>2007-06-16T21:50:38Z</time>
      </trkpt>
      <trkpt lat="47.31056" lon="4.93031">
        <ele>411.229279</ele>
        <time>2007-06-16T21:50:38Z</time>
      </trkpt>
      <trkpt lat="47.31024" lon="4.93002">
        <ele>406.66803</ele>
        <time>2007-06-16T21:50:38Z</time>
      </trkpt>
      <trkpt lat="47.31021" lon="4.92905">
        <ele>403.822357</ele>
        <time>2007-06-16T21:50:38Z</time>
      </trkpt>
      <trkpt lat="47.31009" lon="4.92839">
        <ele>396.731812</ele>
        <time>2007-06-16T21:50:38Z</time>
      </trkpt>
      <trkpt lat="47.30989" lon="4.92752">
        <ele>387.026825</ele>
        <time>2007-06-16T21:50:38Z</time>
      </trkpt>
      <trkpt lat="47.31006" lon="4.92676">
        <ele>387.948517</ele>
        <time>2007-06-16T21:50:38Z</time>
      </trkpt>
      <trkpt lat="47.30985" lon="4.92596">
        <ele>378.670227</ele>
        <time>2007-06-16T21:50:38Z</time>
      </trkpt>
      <trkpt lat="47.3105" lon="4.92531">
        <ele>382.706482</ele>
        <time>2007-06-16T21:50:38Z</time>
      </trkpt>
      <trkpt lat="47.31068" lon="4.92382">
        <ele>356.263824</ele>
        <time>2007-06-16T21:50:38Z</time>
      </trkpt>
      <trkpt lat="47.31028" lon="4.92305">
        <ele>342.976837</ele>
        <time>2007-06-16T21:50:38Z</time>
      </trkpt>
      <trkpt lat="47.30898" lon="4.92149">
        <ele>374.145386</ele>
        <time>2007-06-16T21:50:38Z</time>
      </trkpt>
      <trkpt lat="47.30767" lon="4.91992">
        <ele>383.496277</ele>
        <time>2007-06-16T21:50:38Z</time>
      </trkpt>
      <trkpt lat="47.30681" lon="4.92091">
        <ele>399.78009</ele>
        <time>2007-06-16T21:50:38Z</time>
      </trkpt>
      <trkpt lat="47.30613" lon="4.92139">
        <ele>412.983124</ele>
        <time>2007-06-16T21:50:38Z</time>
      </trkpt>
      <trkpt lat="47.30553" lon="4.92182">
        <ele>423.239624</ele>
        <time>2007-06-16T21:50:38Z</time>
      </trkpt>
      <trkpt lat="47.3052" lon="4.92205">
        <ele>426.883179</ele>
        <time>2007-06-16T21:50:38Z</time>
      </trkpt>
      <trkpt lat="47.30462" lon="4.92256">
        <ele>431.823181</ele>
        <time>2007-06-16T21:50:38Z</time>
      </trkpt>
      <trkpt lat="47.30447" lon="4.92245">
        <ele>432.031769</ele>
        <time>2007-06-16T21:50:38Z</time>
      </trkpt>
      <trkpt lat="47.30325" lon="4.92507">
        <ele>438.472046</ele>
        <time>2007-06-16T21:50:38Z</time>
      </trkpt>
      <trkpt lat="47.30217" lon="4.92617">
        <ele>451.387878</ele>
        <time>2007-06-16T21:50:38Z</time>
      </trkpt>
      <trkpt lat="47.30147" lon="4.92597">
        <ele>456.675598</ele>
        <time>2007-06-16T21:50:38Z</time>
      </trkpt>
      <trkpt lat="47.30021" lon="4.92658">
        <ele>478.605377</ele>
        <time>2007-06-16T21:50:38Z</time>
      </trkpt>
      <trkpt lat="47.29972" lon="4.92544">
        <ele>471.873535</ele>
        <time>2007-06-16T21:50:38Z</time>
      </trkpt>
      <trkpt lat="47.29925" lon="4.92476">
        <ele>478.720154</ele>
        <time>2007-06-16T21:50:38Z</time>
      </trkpt>
      <trkpt lat="47.2988" lon="4.92684">
        <ele>537.272949</ele>
        <time>2007-06-16T21:50:38Z</time>
      </trkpt>
      <trkpt lat="47.29858" lon="4.92759">
        <ele>563.971497</ele>
        <time>2007-06-16T21:50:38Z</time>
      </trkpt>
      <trkpt lat="47.29803" lon="4.92692">
        <ele>570.566284</ele>
        <time>2007-06-16T21:50:38Z</time>
      </trkpt>
      <trkpt lat="47.29715" lon="4.92593">
        <ele>576.749634</ele>
        <time>2007-06-16T21:50:38Z</time>
      </trkpt>
      <trkpt lat="47.29625" lon="4.92567">
        <ele>583.218689</ele>
        <time>2007-06-16T21:50:38Z</time>
      </trkpt>
      <trkpt lat="47.29492" lon="4.92574">
        <ele>587.879944</ele>
        <time>2007-06-16T21:50:38Z</time>
      </trkpt>
      <trkpt lat="47.29383" lon="4.9252">
        <ele>592.443054</ele>
        <time>2007-06-16T21:50:38Z</time>
      </trkpt>
      <trkpt lat="47.29204" lon="4.92348">
        <ele>581.431335</ele>
        <time>2007-06-16T21:50:38Z</time>
      </trkpt>
      <trkpt lat="47.28962" lon="4.92284">
        <ele>589.719421</ele>
        <time>2007-06-16T21:50:38Z</time>
      </trkpt>
      <trkpt lat="47.28968" lon="4.92239">
        <ele>575.86908</ele>
        <time>2007-06-16T21:50:38Z</time>
      </trkpt>
      <trkpt lat="47.28989" lon="4.92204">
        <ele>560.235535</ele>
        <time>2007-06-16T21:50:38Z</time>
      </trkpt>
      <trkpt lat="47.29006" lon="4.92175">
        <ele>545.632446</ele>
        <time>2007-06-16T21:50:38Z</time>
      </trkpt>
      <trkpt lat="47.29018" lon="4.92121">
        <ele>523.090576</ele>
        <time>2007-06-16T21:50:38Z</time>
      </trkpt>
      <trkpt lat="47.29025" lon="4.92067">
        <ele>505.683807</ele>
        <time>2007-06-16T21:50:38Z</time>
      </trkpt>
      <trkpt lat="47.29038" lon="4.92011">
        <ele>490.152649</ele>
        <time>2007-06-16T21:50:38Z</time>
      </trkpt>
      <trkpt lat="47.2906" lon="4.91933">
        <ele>469.018341</ele>
        <time>2007-06-16T21:50:38Z</time>
      </trkpt>
      <trkpt lat="47.29094" lon="4.91859">
        <ele>446.122772</ele>
        <time>2007-06-16T21:50:38Z</time>
      </trkpt>
      <trkpt lat="47.29136" lon="4.91795">
        <ele>428.533752</ele>
        <time>2007-06-16T21:50:38Z</time>
      </trkpt>
      <trkpt lat="47.29168" lon="4.91748">
        <ele>417.722473</ele>
        <time>2007-06-16T21:50:38Z</time>
      </trkpt>
      <trkpt lat="47.29205" lon="4.91685">
        <ele>401.473694</ele>
        <time>2007-06-16T21:50:38Z</time>
      </trkpt>
      <trkpt lat="47.29238" lon="4.91621">
        <ele>386.105072</ele>
        <time>2007-06-16T21:50:38Z</time>
      </trkpt>
      <trkpt lat="47.29269" lon="4.91573">
        <ele>373.340088</ele>
        <time>2007-06-16T21:50:38Z</time>
      </trkpt>
      <trkpt lat="47.29314" lon="4.91527">
        <ele>366.55368</ele>
        <time>2007-06-16T21:50:38Z</time>
      </trkpt>
      <trkpt lat="47.29393" lon="4.91471">
        <ele>358.269745</ele>
        <time>2007-06-16T21:50:38Z</time>
      </trkpt>
      <trkpt lat="47.2943" lon="4.91303">
        <ele>325.999786</ele>
        <time>2007-06-16T21:50:38Z</time>
      </trkpt>
      <trkpt lat="47.29435" lon="4.91195">
        <ele>334.540588</ele>
        <time>2007-06-16T21:50:38Z</time>
      </trkpt>
      <trkpt lat="47.29458" lon="4.91068">
        <ele>378.687012</ele>
        <time>2007-06-16T21:50:38Z</time>
      </trkpt>
      <trkpt lat="47.29464" lon="4.91013">
        <ele>395.250061</ele>
        <time>2007-06-16T21:50:38Z</time>
      </trkpt>
      <trkpt lat="47.29475" lon="4.90941">
        <ele>415.767761</ele>
        <time>2007-06-16T21:50:38Z</time>
      </trkpt>
      <trkpt lat="47.29488" lon="4.90862">
        <ele>434.520752</ele>
        <time>2007-06-16T21:50:38Z</time>
      </trkpt>
      <trkpt lat="47.29519" lon="4.90867">
        <ele>437.108215</ele>
        <time>2007-06-16T21:50:38Z</time>
      </trkpt>
      <trkpt lat="47.29523" lon="4.9079">
        <ele>456.078308</ele>
        <time>2007-06-16T21:50:38Z</time>
      </trkpt>
      <trkpt lat="47.29543" lon="4.90716">
        <ele>484.046112</ele>
        <time>2007-06-16T21:50:38Z</time>
      </trkpt>
      <trkpt lat="47.2955" lon="4.90662">
        <ele>509.988525</ele>
        <time>2007-06-16T21:50:38Z</time>
      </trkpt>
      <trkpt lat="47.29557" lon="4.90622">
        <ele>529.101379</ele>
        <time>2007-06-16T21:50:38Z</time>
      </trkpt>
      <trkpt lat="47.29565" lon="4.90573">
        <ele>550.224182</ele>
        <time>2007-06-16T21:50:38Z</time>
      </trkpt>
      <trkpt lat="47.29573" lon="4.90505">
        <ele>566.136597</ele>
        <time>2007-06-16T21:50:38Z</time>
      </trkpt>
      <trkpt lat="47.29583" lon="4.90435">
        <ele>568.042908</ele>
        <time>2007-06-16T21:50:38Z</time>
      </trkpt>
      <trkpt lat="47.2964" lon="4.90158">
        <ele>566.729431</ele>
        <time>2007-06-16T21:50:38Z</time>
      </trkpt>
      <trkpt lat="47.29372" lon="4.90297">
        <ele>575.006226</ele>
        <time>2007-06-16T21:50:38Z</time>
      </trkpt>
      <trkpt lat="47.2928" lon="4.90304">
        <ele>572.532349</ele>
        <time>2007-06-16T21:50:38Z</time>
      </trkpt>
      <trkpt lat="47.29166" lon="4.90413">
        <ele>564.558655</ele>
        <time>2007-06-16T21:50:38Z</time>
      </trkpt>
      <trkpt lat="47.29037" lon="4.90329">
        <ele>560.898193</ele>
        <time>2007-06-16T21:50:38Z</time>
      </trkpt>
      <trkpt lat="47.28951" lon="4.90306">
        <ele>550.381836</ele>
        <time>2007-06-16T21:50:38Z</time>
      </trkpt>
      <trkpt lat="47.28936" lon="4.90087">
        <ele>485.681458</ele>
        <time>2007-06-16T21:50:38Z</time>
      </trkpt>
      <trkpt lat="47.28919" lon="4.89965">
        <ele>456.315063</ele>
        <time>2007-06-16T21:50:38Z</time>
      </trkpt>
      <trkpt lat="47.28908" lon="4.89829">
        <ele>430.918793</ele>
        <time>2007-06-16T21:50:38Z</time>
      </trkpt>
      <trkpt lat="47.28882" lon="4.8978">
        <ele>431.59201</ele>
        <time>2007-06-16T21:50:38Z</time>
      </trkpt>
      <trkpt lat="47.28824" lon="4.89784">
        <ele>434.867615</ele>
        <time>2007-06-16T21:50:38Z</time>
      </trkpt>
      <trkpt lat="47.28688" lon="4.89761">
        <ele>443.733582</ele>
        <time>2007-06-16T21:50:38Z</time>
      </trkpt>
      <trkpt lat="47.28509" lon="4.8969">
        <ele>466.781097</ele>
        <time>2007-06-16T21:50:38Z</time>
      </trkpt>
      <trkpt lat="47.28466" lon="4.89628">
        <ele>471.434967</ele>
        <time>2007-06-16T21:50:38Z</time>
      </trkpt>
      <trkpt lat="47.2837" lon="4.89546">
        <ele>485.714417</ele>
        <time>2007-06-16T21:50:38Z</time>
      </trkpt>
      <trkpt lat="47.28329" lon="4.89486">
        <ele>492.075439</ele>
        <time>2007-06-16T21:50:38Z</time>
      </trkpt>
      <trkpt lat="47.28314" lon="4.89394">
        <ele>499.030365</ele>
        <time>2007-06-16T21:50:38Z</time>
      </trkpt>
      <trkpt lat="47.28271" lon="4.89325">
        <ele>509.300842</ele>
        <time>2007-06-16T21:50:38Z</time>
      </trkpt>
      <trkpt lat="47.28202" lon="4.8931">
        <ele>514.629028</ele>
        <time>2007-06-16T21:50:38Z</time>
      </trkpt>
      <trkpt lat="47.28149" lon="4.89334">
        <ele>513.402405</ele>
        <time>2007-06-16T21:50:38Z</time>
      </trkpt>
      <trkpt lat="47.28084" lon="4.89407">
        <ele>514.631531</ele>
        <time>2007-06-16T21:50:38Z</time>
      </trkpt>
      <trkpt lat="47.27848" lon="4.89535">
        <ele>512.422974</ele>
        <time>2007-06-16T21:50:38Z</time>
      </trkpt>
      <trkpt lat="47.27726" lon="4.89675">
        <ele>510.008362</ele>
        <time>2007-06-16T21:50:38Z</time>
      </trkpt>
      <trkpt lat="47.27625" lon="4.89698">
        <ele>506.351501</ele>
        <time>2007-06-16T21:50:38Z</time>
      </trkpt>
      <trkpt lat="47.27565" lon="4.89752">
        <ele>497.245331</ele>
        <time>2007-06-16T21:50:38Z</time>
      </trkpt>
      <trkpt lat="47.27474" lon="4.89817">
        <ele>475.347626</ele>
        <time>2007-06-16T21:50:38Z</time>
      </trkpt>
      <trkpt lat="47.27429" lon="4.90129">
        <ele>444.365234</ele>
        <time>2007-06-16T21:50:38Z</time>
      </trkpt>
      <trkpt lat="47.27399" lon="4.90559">
        <ele>399.658081</ele>
        <time>2007-06-16T21:50:38Z</time>
      </trkpt>
      <trkpt lat="47.27424" lon="4.90611">
        <ele>387.444977</ele>
        <time>2007-06-16T21:50:38Z</time>
      </trkpt>
      <trkpt lat="47.27344" lon="4.90787">
        <ele>378.923767</ele>
        <time>2007-06-16T21:50:38Z</time>
      </trkpt>
      <trkpt lat="47.27269" lon="4.90744">
        <ele>385.510284</ele>
        <time>2007-06-16T21:50:38Z</time>
      </trkpt>
      <trkpt lat="47.27177" lon="4.90685">
        <ele>389.220581</ele>
        <time>2007-06-16T21:50:38Z</time>
      </trkpt>
      <trkpt lat="47.27082" lon="4.90597">
        <ele>391.738892</ele>
        <time>2007-06-16T21:50:38Z</time>
      </trkpt>
      <trkpt lat="47.27007" lon="4.90572">
        <ele>396.060822</ele>
        <time>2007-06-16T21:50:38Z</time>
      </trkpt>
      <trkpt lat="47.26853" lon="4.90578">
        <ele>402.19931</ele>
        <time>2007-06-16T21:50:38Z</time>
      </trkpt>
      <trkpt lat="47.26724" lon="4.90415">
        <ele>438.785156</ele>
        <time>2007-06-16T21:50:38Z</time>
      </trkpt>
      <trkpt lat="47.26516" lon="4.90268">
        <ele>478.258301</ele>
        <time>2007-06-16T21:50:38Z</time>
      </trkpt>
      <trkpt lat="47.26426" lon="4.90115">
        <ele>505.637512</ele>
        <time>2007-06-16T21:50:38Z</time>
      </trkpt>
      <trkpt lat="47.26303" lon="4.90001">
        <ele>542.978699</ele>
        <time>2007-06-16T21:50:38Z</time>
      </trkpt>
      <trkpt lat="47.26284" lon="4.89999">
        <ele>542.714966</ele>
        <time>2007-06-16T21:50:38Z</time>
      </trkpt>
      <trkpt lat="47.2629" lon="4.89919">
        <ele>540.788208</ele>
        <time>2007-06-16T21:50:38Z</time>
      </trkpt>
      <trkpt lat="47.26271" lon="4.89782">
        <ele>524.414307</ele>
        <time>2007-06-16T21:50:38Z</time>
      </trkpt>
      <trkpt lat="47.26281" lon="4.8954">
        <ele>506.382538</ele>
        <time>2007-06-16T21:50:38Z</time>
      </trkpt>
      <trkpt lat="47.26273" lon="4.89217">
        <ele>483.795654</ele>
        <time>2007-06-16T21:50:38Z</time>
      </trkpt>
      <trkpt lat="47.26269" lon="4.89066">
        <ele>473.411713</ele>
        <time>2007-06-16T21:50:38Z</time>
      </trkpt>
      <trkpt lat="47.26282" lon="4.88882">
        <ele>461.368134</ele>
        <time>2007-06-16T21:50:38Z</time>
      </trkpt>
      <trkpt lat="47.26303" lon="4.88613">
        <ele>435.23114</ele>
        <time>2007-06-16T21:50:38Z</time>
      </trkpt>
      <trkpt lat="47.2634" lon="4.88441">
        <ele>427.331177</ele>
        <time>2007-06-16T21:50:38Z</time>
      </trkpt>
      <trkpt lat="47.26389" lon="4.88374">
        <ele>420.632019</ele>
        <time>2007-06-16T21:50:38Z</time>
      </trkpt>
      <trkpt lat="47.26355" lon="4.88286">
        <ele>410.633698</ele>
        <time>2007-06-16T21:50:38Z</time>
      </trkpt>
      <trkpt lat="47.26316" lon="4.88232">
        <ele>403.014984</ele>
        <time>2007-06-16T21:50:38Z</time>
      </trkpt>
      <trkpt lat="47.26308" lon="4.88115">
        <ele>399.112701</ele>
        <time>2007-06-16T21:50:38Z</time>
      </trkpt>
      <trkpt lat="47.26348" lon="4.87795">
        <ele>375.41626</ele>
        <time>2007-06-16T21:50:38Z</time>
      </trkpt>
      <trkpt lat="47.26304" lon="4.8765">
        <ele>356.369904</ele>
        <time>2007-06-16T21:50:38Z</time>
      </trkpt>
      <trkpt lat="47.26305" lon="4.87596">
        <ele>353.918945</ele>
        <time>2007-06-16T21:50:38Z</time>
      </trkpt>
      <trkpt lat="47.26331" lon="4.87563">
        <ele>361.974945</ele>
        <time>2007-06-16T21:50:38Z</time>
      </trkpt>
      <trkpt lat="47.26389" lon="4.87596">
        <ele>373.534515</ele>
        <time>2007-06-16T21:50:38Z</time>
      </trkpt>
      <trkpt lat="47.26479" lon="4.87428">
        <ele>398.348694</ele>
        <time>2007-06-16T21:50:38Z</time>
      </trkpt>
      <trkpt lat="47.26407" lon="4.87179">
        <ele>398.256897</ele>
        <time>2007-06-16T21:50:38Z</time>
      </trkpt>
      <trkpt lat="47.26454" lon="4.87115">
        <ele>410.316559</ele>
        <time>2007-06-16T21:50:38Z</time>
      </trkpt>
      <trkpt lat="47.26533" lon="4.8707">
        <ele>415.114105</ele>
        <time>2007-06-16T21:50:38Z</time>
      </trkpt>
      <trkpt lat="47.26683" lon="4.87166">
        <ele>427.489258</ele>
        <time>2007-06-16T21:50:38Z</time>
      </trkpt>
      <trkpt lat="47.26711" lon="4.87154">
        <ele>429.921753</ele>
        <time>2007-06-16T21:50:38Z</time>
      </trkpt>
      <trkpt lat="47.2678" lon="4.87012">
        <ele>434.784363</ele>
        <time>2007-06-16T21:50:38Z</time>
      </trkpt>
      <trkpt lat="47.26904" lon="4.8689">
        <ele>431.594269</ele>
        <time>2007-06-16T21:50:38Z</time>
      </trkpt>
      <trkpt lat="47.27299" lon="4.8674">
        <ele>428.443268</ele>
        <time>2007-06-16T21:50:38Z</time>
      </trkpt>
      <trkpt lat="47.27369" lon="4.86712">
        <ele>424.905029</ele>
        <time>2007-06-16T21:50:38Z</time>
      </trkpt>
      <trkpt lat="47.27438" lon="4.86653">
        <ele>419.162445</ele>
        <time>2007-06-16T21:50:38Z</time>
      </trkpt>
      <trkpt lat="47.27416" lon="4.86545">
        <ele>414.736572</ele>
        <time>2007-06-16T21:50:38Z</time>
      </trkpt>
      <trkpt lat="47.27432" lon="4.86462">
        <ele>419.522614</ele>
        <time>2007-06-16T21:50:38Z</time>
      </trkpt>
      <trkpt lat="47.27481" lon="4.86341">
        <ele>421.226929</ele>
        <time>2007-06-16T21:50:38Z</time>
      </trkpt>
      <trkpt lat="47.27557" lon="4.86296">
        <ele>420.908722</ele>
        <time>2007-06-16T21:50:38Z</time>
      </trkpt>
      <trkpt lat="47.27538" lon="4.86229">
        <ele>416.696686</ele>
        <time>2007-06-16T21:50:38Z</time>
      </trkpt>
      <trkpt lat="47.27535" lon="4.8613">
        <ele>407.367828</ele>
        <time>2007-06-16T21:50:38Z</time>
      </trkpt>
      <trkpt lat="47.2755" lon="4.85997">
        <ele>394.874512</ele>
        <time>2007-06-16T21:50:38Z</time>
      </trkpt>
      <trkpt lat="47.27524" lon="4.85885">
        <ele>379.117676</ele>
        <time>2007-06-16T21:50:38Z</time>
      </trkpt>
      <trkpt lat="47.27533" lon="4.85746">
        <ele>362.452148</ele>
        <time>2007-06-16T21:50:38Z</time>
      </trkpt>
      <trkpt lat="47.27557" lon="4.85665">
        <ele>349.016846</ele>
        <time>2007-06-16T21:50:38Z</time>
      </trkpt>
      <trkpt lat="47.27567" lon="4.856">
        <ele>334.241821</ele>
        <time>2007-06-16T21:50:38Z</time>
      </trkpt>
      <trkpt lat="47.27608" lon="4.85525">
        <ele>316.300049</ele>
        <time>2007-06-16T21:50:38Z</time>
      </trkpt>
      <trkpt lat="47.27657" lon="4.85499">
        <ele>310.753632</ele>
        <time>2007-06-16T21:50:38Z</time>
      </trkpt>
      <trkpt lat="47.27814" lon="4.85517">
        <ele>309.736694</ele>
        <time>2007-06-16T21:50:38Z</time>
      </trkpt>
      <trkpt lat="47.27827" lon="4.85301">
        <ele>334.104645</ele>
        <time>2007-06-16T21:50:38Z</time>
      </trkpt>
      <trkpt lat="47.27874" lon="4.84995">
        <ele>354.304901</ele>
        <time>2007-06-16T21:50:38Z</time>
      </trkpt>
      <trkpt lat="47.27914" lon="4.84746">
        <ele>361.925507</ele>
        <time>2007-06-16T21:50:38Z</time>
      </trkpt>
      <trkpt lat="47.2792" lon="4.84683">
        <ele>368.142914</ele>
        <time>2007-06-16T21:50:38Z</time>
      </trkpt>
      <trkpt lat="47.27964" lon="4.84664">
        <ele>376.486023</ele>
        <time>2007-06-16T21:50:38Z</time>
      </trkpt>
      <trkpt lat="47.27966" lon="4.84578">
        <ele>383.368286</ele>
        <time>2007-06-16T21:50:38Z</time>
      </trkpt>
      <trkpt lat="47.28054" lon="4.84497">
        <ele>397.508911</ele>
        <time>2007-06-16T21:50:38Z</time>
      </trkpt>
      <trkpt lat="47.28043" lon="4.8441">
        <ele>407.012543</ele>
        <time>2007-06-16T21:50:38Z</time>
      </trkpt>
      <trkpt lat="47.27962" lon="4.84219">
        <ele>411.120972</ele>
        <time>2007-06-16T21:50:38Z</time>
      </trkpt>
      <trkpt lat="47.28132" lon="4.84277">
        <ele>454.462341</ele>
        <time>2007-06-16T21:50:38Z</time>
      </trkpt>
      <trkpt lat="47.28188" lon="4.84324">
        <ele>459.096619</ele>
        <time>2007-06-16T21:50:38Z</time>
      </trkpt>
      <trkpt lat="47.28238" lon="4.84325">
        <ele>466.045532</ele>
        <time>2007-06-16T21:50:38Z</time>
      </trkpt>
      <trkpt lat="47.2837" lon="4.8437">
        <ele>499.705536</ele>
        <time>2007-06-16T21:50:38Z</time>
      </trkpt>
      <trkpt lat="47.28378" lon="4.84328">
        <ele>509.554871</ele>
        <time>2007-06-16T21:50:38Z</time>
      </trkpt>
      <trkpt lat="47.28443" lon="4.84293">
        <ele>525.605896</ele>
        <time>2007-06-16T21:50:38Z</time>
      </trkpt>
      <trkpt lat="47.28904" lon="4.84323">
        <ele>513.436523</ele>
        <time>2007-06-16T21:50:38Z</time>
      </trkpt>
      <trkpt lat="47.28962" lon="4.8431">
        <ele>512.092712</ele>
        <time>2007-06-16T21:50:38Z</time>
      </trkpt>
      <trkpt lat="47.29026" lon="4.84248">
        <ele>509.821289</ele>
        <time>2007-06-16T21:50:38Z</time>
      </trkpt>
      <trkpt lat="47.2905" lon="4.84184">
        <ele>508.659821</ele>
        <time>2007-06-16T21:50:38Z</time>
      </trkpt>
      <trkpt lat="47.29022" lon="4.84126">
        <ele>490.013641</ele>
        <time>2007-06-16T21:50:38Z</time>
      </trkpt>
      <trkpt lat="47.28915" lon="4.84029">
        <ele>433.684906</ele>
        <time>2007-06-16T21:50:38Z</time>
      </trkpt>
      <trkpt lat="47.28885" lon="4.83941">
        <ele>413.990631</ele>
        <time>2007-06-16T21:50:38Z</time>
      </trkpt>
      <trkpt lat="47.28842" lon="4.83886">
        <ele>395.624634</ele>
        <time>2007-06-16T21:50:38Z</time>
      </trkpt>
      <trkpt lat="47.28837" lon="4.8384">
        <ele>388.625519</ele>
        <time>2007-06-16T21:50:38Z</time>
      </trkpt>
      <trkpt lat="47.28863" lon="4.83768">
        <ele>392.065399</ele>
        <time>2007-06-16T21:50:38Z</time>
      </trkpt>
      <trkpt lat="47.28846" lon="4.83677">
        <ele>392.601135</ele>
        <time>2007-06-16T21:50:38Z</time>
      </trkpt>
      <trkpt lat="47.28722" lon="4.83486">
        <ele>391.480225</ele>
        <time>2007-06-16T21:50:38Z</time>
      </trkpt>
      <trkpt lat="47.28677" lon="4.83388">
        <ele>377.631531</ele>
        <time>2007-06-16T21:50:38Z</time>
      </trkpt>
      <trkpt lat="47.28655" lon="4.83268">
        <ele>365.618378</ele>
        <time>2007-06-16T21:50:38Z</time>
      </trkpt>
      <trkpt lat="47.28522" lon="4.83186">
        <ele>351.095428</ele>
        <time>2007-06-16T21:50:38Z</time>
      </trkpt>
      <trkpt lat="47.28503" lon="4.83152">
        <ele>350.292877</ele>
        <time>2007-06-16T21:50:38Z</time>
      </trkpt>
      <trkpt lat="47.28481" lon="4.83025">
        <ele>332.642456</ele>
        <time>2007-06-16T21:50:38Z</time>
      </trkpt>
      <trkpt lat="47.28436" lon="4.82948">
        <ele>299.42746</ele>
        <time>2007-06-16T21:50:38Z</time>
      </trkpt>
      <trkpt lat="47.28329" lon="4.83001">
        <ele>316.763855</ele>
        <time>2007-06-16T21:50:38Z</time>
      </trkpt>
      <trkpt lat="47.28314" lon="4.82857">
        <ele>349.8815</ele>
        <time>2007-06-16T21:50:38Z</time>
      </trkpt>
      <trkpt lat="47.28298" lon="4.82668">
        <ele>386.569946</ele>
        <time>2007-06-16T21:50:38Z</time>
      </trkpt>
      <trkpt lat="47.28298" lon="4.82595">
        <ele>396.749969</ele>
        <time>2007-06-16T21:50:38Z</time>
      </trkpt>
      <trkpt lat="47.28293" lon="4.82542">
        <ele>402.215515</ele>
        <time>2007-06-16T21:50:38Z</time>
      </trkpt>
      <trkpt lat="47.28273" lon="4.82549">
        <ele>402.702789</ele>
        <time>2007-06-16T21:50:38Z</time>
      </trkpt>
      <trkpt lat="47.28262" lon="4.82504">
        <ele>406.872345</ele>
        <time>2007-06-16T21:50:38Z</time>
      </trkpt>
      <trkpt lat="47.28243" lon="4.82495">
        <ele>408.603546</ele>
        <time>2007-06-16T21:50:38Z</time>
      </trkpt>
      <trkpt lat="47.28121" lon="4.82527">
        <ele>405.762024</ele>
        <time>2007-06-16T21:50:38Z</time>
      </trkpt>
      <trkpt lat="47.2811" lon="4.82452">
        <ele>420.888641</ele>
        <time>2007-06-16T21:50:38Z</time>
      </trkpt>
      <trkpt lat="47.28182" lon="4.82363">
        <ele>431.271973</ele>
        <time>2007-06-16T21:50:38Z</time>
      </trkpt>
      <trkpt lat="47.28206" lon="4.82225">
        <ele>447.680481</ele>
        <time>2007-06-16T21:50:38Z</time>
      </trkpt>
      <trkpt lat="47.28075" lon="4.82094">
        <ele>478.461151</ele>
        <time>2007-06-16T21:50:38Z</time>
      </trkpt>
      <trkpt lat="47.28045" lon="4.8212">
        <ele>488.903229</ele>
        <time>2007-06-16T21:50:38Z</time>
      </trkpt>
      <trkpt lat="47.28029" lon="4.82163">
        <ele>494.572205</ele>
        <time>2007-06-16T21:50:38Z</time>
      </trkpt>
      <trkpt lat="47.27955" lon="4.82091">
        <ele>504.573273</ele>
        <time>2007-06-16T21:50:38Z</time>
      </trkpt>
      <trkpt lat="47.27907" lon="4.82028">
        <ele>507.333496</ele>
        <time>2007-06-16T21:50:38Z</time>
      </trkpt>
      <trkpt lat="47.27949" lon="4.81888">
        <ele>482.577728</ele>
        <time>2007-06-16T21:50:38Z</time>
      </trkpt>
      <trkpt lat="47.28024" lon="4.81761">
        <ele>456.903503</ele>
        <time>2007-06-16T21:50:38Z</time>
      </trkpt>
      <trkpt lat="47.2802" lon="4.81714">
        <ele>450.390594</ele>
        <time>2007-06-16T21:50:38Z</time>
      </trkpt>
      <trkpt lat="47.2796" lon="4.81665">
        <ele>450.71402</ele>
        <time>2007-06-16T21:50:38Z</time>
      </trkpt>
      <trkpt lat="47.27981" lon="4.81595">
        <ele>435.198212</ele>
        <time>2007-06-16T21:50:38Z</time>
      </trkpt>
      <trkpt lat="47.28022" lon="4.81506">
        <ele>419.030609</ele>
        <time>2007-06-16T21:50:38Z</time>
      </trkpt>
      <trkpt lat="47.28069" lon="4.81511">
        <ele>409.624817</ele>
        <time>2007-06-16T21:50:38Z</time>
      </trkpt>
      <trkpt lat="47.28125" lon="4.81486">
        <ele>398.701874</ele>
        <time>2007-06-16T21:50:38Z</time>
      </trkpt>
      <trkpt lat="47.28151" lon="4.81456">
        <ele>394.98468</ele>
        <time>2007-06-16T21:50:38Z</time>
      </trkpt>
      <trkpt lat="47.28187" lon="4.81416">
        <ele>384.223785</ele>
        <time>2007-06-16T21:50:38Z</time>
      </trkpt>
      <trkpt lat="47.28233" lon="4.81374">
        <ele>377.481689</ele>
        <time>2007-06-16T21:50:38Z</time>
      </trkpt>
      <trkpt lat="47.2829" lon="4.81333">
        <ele>366.808228</ele>
        <time>2007-06-16T21:50:38Z</time>
      </trkpt>
      <trkpt lat="47.28333" lon="4.81308">
        <ele>358.309814</ele>
        <time>2007-06-16T21:50:38Z</time>
      </trkpt>
      <trkpt lat="47.28526" lon="4.81259">
        <ele>336.265137</ele>
        <time>2007-06-16T21:50:38Z</time>
      </trkpt>
      <trkpt lat="47.28656" lon="4.81167">
        <ele>312.684814</ele>
        <time>2007-06-16T21:50:38Z</time>
      </trkpt>
      <trkpt lat="47.28765" lon="4.81188">
        <ele>296.460693</ele>
        <time>2007-06-16T21:50:38Z</time>
      </trkpt>
      <trkpt lat="47.28787" lon="4.81222">
        <ele>294.97226</ele>
        <time>2007-06-16T21:50:38Z</time>
      </trkpt>
      <trkpt lat="47.28814" lon="4.81309">
        <ele>300.495941</ele>
        <time>2007-06-16T21:50:38Z</time>
      </trkpt>
      <trkpt lat="47.28821" lon="4.81249">
        <ele>287.921753</ele>
        <time>2007-06-16T21:50:38Z</time>
      </trkpt>
      <trkpt lat="47.28847" lon="4.81235">
        <ele>283.678528</ele>
        <time>2007-06-16T21:50:38Z</time>
      </trkpt>
      <trkpt lat="47.28872" lon="4.81286">
        <ele>284.078003</ele>
        <time>2007-06-16T21:50:38Z</time>
      </trkpt>
      <trkpt lat="47.28932" lon="4.81358">
        <ele>282.461884</ele>
        <time>2007-06-16T21:50:38Z</time>
      </trkpt>
      <trkpt lat="47.29026" lon="4.81491">
        <ele>285.145447</ele>
        <time>2007-06-16T21:50:38Z</time>
      </trkpt>
      <trkpt lat="47.29157" lon="4.81632">
        <ele>280.911469</ele>
        <time>2007-06-16T21:50:38Z</time>
      </trkpt>
      <trkpt lat="47.29239" lon="4.81615">
        <ele>279.730316</ele>
        <time>2007-06-16T21:50:38Z</time>
      </trkpt>
      <trkpt lat="47.2938" lon="4.81478">
        <ele>280.269531</ele>
        <time>2007-06-16T21:50:38Z</time>
      </trkpt>
      <trkpt lat="47.2949" lon="4.81429">
        <ele>279.965424</ele>
        <time>2007-06-16T21:50:38Z</time>
      </trkpt>
      <trkpt lat="47.29528" lon="4.81424">
        <ele>279.348663</ele>
        <time>2007-06-16T21:50:38Z</time>
      </trkpt>
      <trkpt lat="47.29694" lon="4.81508">
        <ele>280.330963</ele>
        <time>2007-06-16T21:50:38Z</time>
      </trkpt>
    </trkseg>
  </trk>
</gpx>